Вернуться в каталог

STARLINK-31823

АктивенСвязьVLEO
NORAD 59794·PAYLOAD·🇺🇸 United States

Запущен May 18, 2024 с Cape Canaveral Space Force Station

Loading…

Ближайшие Пролёты (ближайшие 24 часа)

TLE

СвежийSource: CelesTrak SupGP

Эпоха: Sep 15, 2026, 03:10 UTC

1 59794C 24093N   26258.13243056 -.00047707  00000+0 -17283-2 0  2586
2 59794  43.0009 218.9802 0001335 266.5729 277.0341 15.27595882    18

Отслеживайте STARLINK-31823 в реальном времени с AllMySat

Download on the App Store